Wind_Speed
30 31 32 33 35 37 39 40 42 44 46 47 44 37 28 21 19 17 16 19 25 28 30 32 35 38 40 43 45 48 50 51 51 50 49 48 47 47 46 44 43 43 44 45 45 45 48 52 56 58 58 57 58 59 58 57 55 53 51 51 51 51 52 53 54 57 59 61 62 61 62 64 65 64
31 32 33 33 36 38 40 41 43 45 46 48 46 38 27 21 20 19 18 19 23 28 30 32 35 38 41 44 46 48 49 51 52 52 51 50 50 50 50 49 49 49 49 49 49 51 54 58 61 62 63 64 64 64 63 61 59 56 54 53 53 53 53 54 56 58 59 61 63 64 63 64 66 67
32 33 34 35 37 38 40 41 43 46 47 50 50 42 31 24 23 22 20 20 23 28 30 32 34 37 41 44 47 49 49 50 52 53 53 53 52 53 54 54 53 53 54 53 53 56 59 63 66 68 69 70 70 68 67 64 61 59 57 56 55 55 54 55 56 58 61 62 63 65 66 65 66 67
32 33 34 36 37 38 40 42 44 46 47 50 53 49 38 29 25 23 22 21 23 28 31 34 36 38 41 45 48 49 50 51 52 54 55 55 55 56 57 57 57 57 58 58 58 61 64 68 71 73 74 75 74 73 70 67 64 61 59 58 57 56 56 56 57 59 61 62 63 65 67 68 67 68
33 34 35 36 37 38 39 41 43 45 46 49 53 53 47 37 30 26 23 22 24 28 32 35 37 40 43 46 48 50 51 52 53 55 57 58 58 58 59 59 60 60 61 62 63 66 69 73 76 78 79 79 78 75 72 69 66 63 61 59 58 57 57 57 57 58 61 63 64 65 67 69 70 69
34 35 36 37 38 39 39 40 42 44 45 47 51 53 50 41 33 28 25 24 26 29 33 36 40 42 45 47 49 49 51 54 55 56 58 59 60 60 61 61 62 63 64 65 67 70 73 77 80 82 83 82 80 77 74 71 68 65 62 60 58 58 57 57 57 58 60 63 65 65 67 69 71 71
36 37 38 39 39 39 40 40 42 43 44 45 48 50 49 41 34 29 26 25 29 33 36 39 42 45 47 48 49 49 52 55 56 57 59 61 61 62 62 63 64 66 67 68 70 73 76 80 83 85 86 85 83 79 75 72 69 66 63 60 58 58 57 57 58 58 60 63 66 67 68 70 72 73
37 39 40 40 40 40 41 41 42 43 44 45 46 47 46 40 34 29 27 28 33 37 40 42 45 47 48 48 47 48 51 55 56 58 60 62 63 63 64 65 66 68 69 70 73 76 79 83 86 88 89 88 85 81 75 71 68 65 63 61 59 57 57 57 58 59 60 63 66 68 69 71 73 75
39 40 41 41 41 41 42 43 43 44 45 46 46 46 45 41 36 33 30 32 36 41 44 46 48 50 49 47 46 46 50 55 57 59 61 63 65 65 65 66 68 70 71 73 76 79 82 86 89 91 92 91 87 82 76 71 66 63 61 60 58 57 57 57 58 59 60 62 65 69 71 72 74 75
41 42 42 43 43 42 43 43 44 45 46 46 46 46 46 43 40 37 34 35 40 45 48 50 52 52 49 45 45 46 50 55 58 60 62 64 66 66 66 67 69 71 72 75 78 80 84 88 91 94 96 94 89 83 77 71 65 60 57 56 56 56 56 56 57 59 60 62 64 68 70 72 73 74
43 44 44 45 45 44 44 44 45 46 48 47 46 47 46 44 42 40 37 39 43 48 51 52 54 54 48 44 44 46 50 55 58 60 63 64 66 67 68 69 70 72 74 77 80 82 85 89 93 97 98 96 91 85 77 70 64 58 54 52 52 52 53 54 56 58 59 61 64 67 69 72 73 74
45 46 47 47 47 46 46 45 46 47 49 50 48 48 47 45 44 42 41 43 47 50 52 54 55 53 48 43 44 47 51 56 59 61 64 65 67 68 69 70 72 74 76 79 82 84 88 91 95 99 101 99 94 87 79 71 63 56 52 50 49 49 50 52 54 56 58 60 63 66 69 71 74 76
47 48 49 49 49 49 48 48 48 49 51 52 51 50 49 47 46 45 45 46 49 52 54 55 55 53 47 43 44 48 52 56 59 62 65 67 68 69 71 72 74 75 78 81 84 87 90 94 99 103 105 103 98 91 83 75 64 55 50 48 46 46 47 49 51 53 56 58 61 65 69 72 75 76
49 50 51 51 51 51 51 50 50 50 52 54 54 53 50 47 47 47 47 48 50 53 55 55 55 52 47 43 45 49 54 57 60 63 66 68 69 71 73 74 75 78 81 84 87 90 93 97 102 106 108 107 102 94 86 78 68 57 49 45 43 43 44 46 48 51 54 57 59 63 67 72 75 77
51 52 53 53 53 53 53 53 52 53 54 56 56 54 52 50 48 49 49 50 51 54 56 55 54 51 46 44 46 51 55 59 61 64 67 70 71 72 74 76 77 79 83 86 89 92 96 100 104 108 110 110 106 98 90 81 71 60 51 44 40 40 41 42 45 47 51 54 57 61 64 69 74 77
53 54 55 56 56 55 55 55 55 55 56 58 58 56 54 52 51 51 51 51 52 53 55 54 51 48 45 44 47 52 57 60 63 65 68 71 72 73 75 77 79 81 85 88 90 94 97 102 106 110 112 112 109 102 93 84 74 63 54 45 39 37 37 38 41 43 47 50 55 58 61 65 69 74
56 56 57 58 58 58 57 57 58 58 59 60 60 57 55 54 53 52 52 51 51 51 51 50 48 47 46 46 49 53 58 62 64 67 69 72 73 74 76 78 80 83 86 89 91 94 98 103 107 111 113 113 111 104 96 87 78 67 58 48 39 34 34 35 37 40 42 46 50 54 59 62 65 69
59 59 59 60 60 60 59 59 60 60 60 62 61 59 57 55 54 53 51 50 50 49 48 47 47 47 47 47 49 54 59 63 66 68 70 73 74 75 77 79 81 84 88 90 92 95 99 103 108 112 114 114 113 107 98 90 82 72 63 53 43 35 32 32 33 36 39 41 44 48 53 58 62 66
61 62 62 62 62 62 62 62 61 61 61 63 62 60 58 56 55 53 50 49 49 47 46 46 46 48 48 48 51 55 60 64 67 69 71 73 75 76 78 80 82 85 89 92 93 96 99 104 108 112 114 115 115 110 101 92 85 76 67 58 48 40 35 31 31 32 35 38 40 43 47 52 57 62
65 65 64 64 64 64 65 64 63 62 62 63 62 60 58 57 55 51 48 47 47 46 45 45 46 49 50 50 53 56 61 64 67 70 72 74 76 77 79 81 83 86 89 92 94 97 100 104 108 112 115 116 117 114 105 94 87 79 70 61 52 45 40 35 32 31 32 34 37 40 42 46 50 55
67 68 67 67 66 67 67 66 65 64 63 62 61 59 57 56 53 47 45 45 45 44 44 45 47 51 52 53 54 58 62 65 67 70 72 75 76 77 79 82 84 87 90 93 95 97 100 104 108 112 115 118 119 117 109 98 89 81 71 63 55 48 44 40 36 32 31 31 34 37 40 42 45 49
70 70 69 69 68 68 67 66 65 63 61 59 59 57 55 53 49 44 42 44 44 43 44 46 49 52 54 55 56 60 63 65 67 70 73 75 77 78 80 82 84 87 90 93 96 98 100 105 109 111 115 119 121 120 113 103 94 85 74 65 57 51 46 43 40 36 33 31 32 33 36 39 42 45
71 70 70 70 68 66 64 62 61 58 56 54 55 54 51 49 46 41 41 43 43 42 44 47 50 53 56 56 58 61 64 66 68 71 73 75 77 79 80 83 85 88 91 94 97 98 101 105 109 112 114 118 122 123 117 107 99 91 80 68 60 53 48 45 42 39 36 33 32 32 33 36 39 42
69 68 67 65 63 59 57 57 57 54 52 50 50 50 48 45 43 41 39 40 41 42 45 48 51 54 57 57 59 61 64 66 68 71 73 76 78 80 81 84 86 88 91 94 97 99 101 105 110 112 114 118 121 123 119 111 102 95 84 73 63 55 49 46 44 41 38 36 33 32 32 33 36 39
63 61 59 57 56 54 54 54 52 49 47 45 44 46 46 44 42 40 37 38 41 43 46 48 51 55 57 58 59 62 64 65 68 71 73 76 78 81 82 85 87 89 91 94 97 99 102 106 109 111 114 118 121 122 119 112 104 97 88 76 66 57 51 46 44 42 40 38 36 33 32 32 33 36
57 55 53 52 51 50 49 48 45 42 41 41 41 43 44 41 39 37 36 39 43 45 47 49 52 56 58 59 60 62 63 65 68 71 73 76 79 81 83 86 88 89 91 94 98 100 102 106 109 111 113 117 120 121 119 113 106 99 91 80 69 61 54 48 44 42 41 40 38 35 32 31 31 33
52 51 50 49 47 44 40 38 37 37 38 40 41 42 41 39 37 37 39 43 46 47 48 51 54 57 59 60 60 62 63 65 68 71 73 76 79 82 84 86 88 90 92 94 98 100 103 106 109 110 112 116 119 121 118 113 107 101 94 84 73 64 58 52 47 43 41 40 40 38 34 32 31 31
47 47 48 47 42 36 34 32 34 37 40 41 41 40 39 38 38 39 43 47 48 49 50 52 55 58 60 61 61 62 63 65 68 71 74 76 79 83 85 86 88 89 91 94 97 100 103 106 108 109 111 115 119 120 118 113 107 102 96 88 77 67 60 55 49 45 42 40 39 38 36 34 32 31
43 44 45 41 33 29 30 32 35 39 42 41 38 38 38 39 40 42 46 48 49 51 52 53 56 59 60 61 61 62 64 65 68 72 74 77 80 83 85 87 88 89 91 93 97 101 103 106 108 109 111 115 118 119 117 114 108 103 98 90 80 71 63 58 53 49 45 42 38 36 35 34 32 31
41 42 43 41 35 32 34 35 35 39 42 41 38 38 39 40 41 44 47 49 51 52 53 55 58 59 60 61 62 63 64 66 69 72 75 78 81 84 86 87 88 89 91 93 97 101 103 105 107 109 111 115 118 119 117 114 109 104 99 92 83 73 66 61 56 53 49 45 40 36 33 32 32 31
40 43 47 50 51 49 44 41 40 41 42 42 42 42 43 42 43 45 47 50 52 54 55 57 59 60 60 61 62 64 65 67 69 72 75 79 82 85 86 87 88 89 90 93 97 100 103 105 107 109 112 115 118 118 117 114 109 104 100 94 85 76 68 62 58 55 53 49 44 38 33 30 29 30
50 54 59 63 64 59 52 48 46 44 43 44 45 46 46 45 45 46 49 52 54 56 57 58 60 60 60 62 64 65 67 68 70 72 76 80 83 85 87 88 88 89 90 93 97 100 103 105 107 109 112 116 118 117 116 113 108 104 100 95 88 78 70 63 59 56 54 52 49 45 39 33 29 29
61 61 62 64 63 59 55 52 50 46 43 43 47 49 49 49 48 49 51 54 56 57 57 58 60 61 61 63 65 66 68 70 71 73 77 81 84 86 87 88 88 89 90 93 96 100 102 105 107 109 113 116 118 117 115 111 107 103 100 95 88 80 72 65 60 56 52 49 47 47 44 38 33 31
57 58 61 62 59 55 54 53 51 48 45 45 48 51 52 50 50 51 53 56 56 56 57 58 60 61 62 63 65 67 69 71 72 74 78 82 85 87 87 88 88 89 90 93 96 99 102 105 107 110 113 116 118 117 116 112 106 102 99 95 88 81 73 67 61 56 51 46 44 46 44 39 34 31
46 47 49 50 47 45 46 48 50 50 50 49 49 51 52 51 50 51 54 56 56 56 57 58 59 62 63 64 66 68 70 71 73 75 79 83 86 87 87 88 88 89 90 93 96 99 102 105 108 110 113 116 116 116 116 113 107 101 98 94 88 81 74 68 63 58 52 47 44 45 43 37 32 28
38 38 39 42 46 49 51 52 53 55 54 51 50 51 51 51 51 52 54 56 56 56 57 59 60 62 63 65 67 69 71 72 73 76 80 84 86 87 87 88 88 89 90 93 96 99 102 105 108 110 113 115 116 115 115 113 107 102 98 94 88 81 75 69 65 60 54 49 46 44 42 37 31 27
38 44 50 57 61 62 61 61 61 62 59 53 51 51 51 51 52 52 54 56 57 57 59 60 61 62 63 64 67 70 72 73 74 77 81 84 85 87 87 88 88 89 91 93 96 98 101 104 108 111 112 114 115 115 116 113 107 101 98 94 89 82 74 68 64 62 57 51 47 45 41 37 32 27
45 52 61 69 71 67 64 63 64 65 62 55 51 51 52 53 53 52 54 57 59 59 60 60 61 61 62 64 67 70 72 73 75 78 82 84 85 87 87 87 88 89 91 93 96 98 101 104 107 110 111 112 113 114 115 113 108 101 97 94 89 82 74 68 64 62 59 54 49 46 41 36 33 28
50 56 61 64 66 65 65 64 64 64 60 53 50 51 52 52 51 52 54 58 60 61 61 60 60 61 62 65 68 70 73 74 76 79 82 84 85 87 87 87 88 89 91 94 95 97 100 104 107 109 110 110 111 113 113 111 107 101 97 93 89 83 75 68 62 60 59 56 51 46 41 36 31 28
47 52 53 55 57 59 60 61 63 62 57 51 50 51 49 48 50 53 55 58 60 63 62 61 60 62 64 66 69 71 73 74 76 79 82 84 85 86 86 86 88 89 92 94 95 97 100 104 106 107 108 109 110 111 111 109 105 100 96 93 89 83 76 68 61 57 57 56 53 47 42 36 31 27
42 46 48 51 53 53 54 58 61 60 55 53 53 51 49 50 53 57 59 59 61 64 65 64 63 64 66 68 70 72 72 74 77 80 82 84 85 85 85 86 88 90 92 94 95 97 100 103 105 106 107 108 109 110 110 107 103 98 94 91 88 83 76 69 62 56 54 54 52 48 43 37 32 27
44 47 48 50 52 51 51 55 57 56 56 59 60 57 55 56 59 61 61 61 63 65 66 66 65 65 66 68 70 71 72 75 78 80 82 84 84 84 85 87 88 91 93 94 95 97 100 103 104 105 106 107 108 109 108 105 101 96 93 90 88 83 76 69 62 56 53 52 51 48 43 38 33 29
44 47 48 50 52 52 55 57 57 57 61 66 67 64 60 61 63 64 63 63 66 67 67 66 65 65 65 68 69 71 73 76 78 81 83 83 82 83 85 87 89 91 93 94 95 98 100 102 103 104 104 106 107 108 107 104 100 95 91 88 86 83 77 69 62 56 52 50 49 46 42 37 33 30
45 47 47 49 51 53 56 59 60 62 65 68 67 64 62 62 64 66 65 66 68 68 67 66 65 64 65 67 69 72 74 76 79 82 82 81 81 83 86 88 90 92 94 94 95 97 99 101 102 103 103 104 106 106 105 103 98 93 89 87 85 82 77 70 63 56 51 48 47 45 40 35 31 29
39 40 41 45 49 53 57 60 61 61 63 63 62 62 63 64 65 68 69 69 69 67 66 65 64 63 64 67 70 73 75 78 80 82 81 80 82 84 86 89 91 92 93 94 95 97 99 100 101 101 102 103 104 104 104 102 97 91 87 85 83 80 76 70 63 57 52 48 46 43 39 34 30 27
Wind_Direction
340 342 342 341 344 346 348 348 347 347 348 349 348 345 344 345 345 346 352 359 5 9 11 10 10 9 8 9 9 10 9 6 4 4 3 2 2 1 359 355 351 348 345 343 340 336 334 332 331 331 328 325 323 320 316 311 306 299 292 285 279 273 268 264 260 258 256 253 250 246 243 240 240 240
337 340 340 339 341 344 344 345 345 345 346 349 350 347 343 346 348 344 344 346 352 0 5 5 6 6 4 4 5 5 6 5 3 2 1 1 1 360 358 356 353 350 347 345 341 338 336 334 334 332 330 328 325 322 317 312 306 300 293 286 280 274 268 263 259 256 254 252 250 247 245 242 239 238
335 338 339 338 339 341 342 343 344 345 345 346 349 348 341 337 342 343 341 338 341 349 355 358 360 0 360 359 359 359 1 3 2 1 -0 359 359 359 358 356 354 352 349 346 343 339 338 336 335 334 332 330 327 324 319 314 307 300 293 287 281 275 269 263 258 256 253 251 249 247 245 243 240 237
333 336 337 336 338 340 340 341 342 344 345 344 346 348 341 329 327 335 338 335 335 341 347 351 353 354 354 354 354 354 356 359 1 0 359 358 357 357 356 356 355 353 351 348 345 342 340 339 338 336 334 332 329 325 321 315 309 302 295 288 282 276 271 265 259 255 253 251 248 246 244 243 242 239
330 332 333 334 336 338 339 339 340 342 344 344 344 346 344 332 320 322 330 333 333 337 342 346 348 348 348 348 349 351 353 356 359 359 358 357 356 355 355 354 354 353 352 349 347 344 342 341 340 338 336 334 331 327 322 317 311 305 298 290 283 277 272 267 261 256 253 251 248 246 243 242 242 241
327 329 330 331 333 336 336 336 338 340 342 343 344 344 343 336 323 316 320 327 333 337 340 342 342 342 343 344 346 348 350 354 356 357 357 356 354 353 353 353 352 352 352 350 348 346 344 343 342 340 338 335 332 328 324 318 312 306 300 293 285 278 272 267 263 257 253 250 248 246 243 241 241 241
325 326 327 329 331 333 333 333 335 336 338 341 343 344 341 336 327 319 317 324 333 337 338 338 338 338 339 341 344 346 348 351 354 355 355 354 353 352 352 352 351 351 352 351 349 347 345 344 343 342 340 337 334 330 325 320 313 307 300 294 287 280 273 268 263 258 253 249 247 245 243 241 239 239
323 324 324 326 328 330 330 330 331 333 335 337 341 343 341 333 325 320 318 323 332 335 335 335 335 334 335 338 341 344 346 349 352 353 353 353 352 351 350 350 350 351 352 351 349 347 346 345 345 343 341 339 337 332 327 321 314 307 300 293 287 280 274 269 263 258 253 249 246 244 242 240 239 238
320 321 322 323 325 327 327 327 329 329 331 334 337 340 340 331 322 317 316 320 327 331 331 331 333 333 333 335 339 342 345 348 350 351 351 352 351 350 350 349 349 350 351 350 349 348 347 346 345 344 343 341 339 335 330 324 317 309 301 293 286 280 274 268 264 259 254 249 246 244 242 241 239 238
317 318 320 321 322 323 324 324 326 326 327 330 333 336 338 332 322 315 313 316 321 326 327 328 330 331 331 333 337 341 344 346 348 349 349 350 350 349 349 349 349 349 350 349 349 348 347 347 346 345 345 344 341 338 333 327 320 311 303 295 287 280 273 267 263 259 255 250 246 244 242 241 239 238
314 315 317 318 319 320 321 321 322 323 324 327 330 333 335 333 324 316 312 312 316 321 324 325 326 329 330 332 336 340 343 345 347 347 347 348 348 348 348 348 348 349 349 348 348 348 348 348 347 346 346 345 344 340 336 330 323 314 305 296 288 281 275 268 263 258 255 251 247 245 242 240 239 238
312 313 314 315 316 317 318 319 320 321 322 323 326 329 331 331 325 318 312 312 315 319 321 322 323 326 329 331 335 340 342 343 345 346 346 346 346 347 347 347 348 349 348 347 347 347 347 348 348 348 348 347 346 343 339 335 328 318 309 299 290 282 276 270 264 259 255 251 248 245 243 240 239 237
309 310 311 312 313 314 315 316 318 319 319 321 323 326 328 327 325 320 315 313 314 317 319 319 321 324 327 330 334 338 341 342 343 344 344 345 345 345 346 347 348 348 347 347 347 347 347 348 349 349 349 349 348 345 342 339 334 324 315 305 295 285 277 271 266 261 256 252 248 245 243 241 239 238
307 307 308 310 311 311 313 314 316 317 317 318 321 323 325 325 323 320 316 312 312 314 316 317 319 322 325 328 332 337 340 341 342 343 343 344 344 344 345 346 347 347 346 346 346 346 347 348 349 350 350 350 349 347 345 342 338 331 321 311 300 290 281 273 267 261 257 254 250 246 243 241 239 238
304 306 306 307 308 310 311 312 314 315 315 316 318 321 322 322 321 319 316 313 312 313 314 315 318 321 324 327 332 336 339 340 340 341 342 343 343 344 344 345 347 346 345 346 346 346 347 348 349 350 350 350 350 348 346 344 341 335 328 318 305 294 285 277 270 264 259 255 251 248 245 242 240 239
303 304 305 305 306 308 310 311 312 313 313 313 315 318 319 319 319 319 316 313 311 311 312 315 318 322 325 328 332 336 338 339 339 340 342 342 342 343 343 344 346 345 345 345 346 346 347 348 349 350 350 351 351 349 347 346 343 339 333 324 313 301 292 284 277 269 263 257 253 250 248 245 242 240
302 302 303 304 305 306 308 309 310 311 310 311 313 315 316 317 317 316 315 312 310 310 313 316 319 323 326 328 332 335 337 338 338 339 341 341 341 342 343 343 344 344 344 345 346 346 347 348 349 350 350 351 351 350 348 346 345 341 336 330 321 310 300 291 284 277 270 263 257 253 250 247 245 243
300 300 301 302 303 305 306 307 307 308 308 308 310 312 314 315 315 315 313 310 309 311 314 317 320 323 326 328 331 334 336 337 337 338 340 340 341 341 342 342 343 344 343 344 345 345 346 347 348 349 350 351 351 350 349 347 346 344 340 334 327 318 309 299 290 284 277 271 264 258 253 250 248 246
297 298 299 300 301 302 303 304 305 306 305 306 308 311 312 312 313 313 311 307 308 311 314 316 320 324 326 328 331 333 335 336 336 337 339 340 340 340 340 340 342 343 343 343 344 345 346 347 348 349 349 350 351 351 350 348 347 345 342 337 331 325 318 309 299 290 282 277 271 265 259 255 251 248
295 295 296 298 299 300 300 301 303 303 303 304 306 309 310 310 311 311 308 305 307 311 313 316 320 324 326 328 330 332 333 334 335 336 337 339 339 340 339 339 341 342 342 343 344 345 346 347 348 348 349 350 351 351 350 349 348 346 343 339 334 328 323 318 311 300 290 282 276 271 265 260 255 251
292 293 295 296 297 298 298 300 301 302 301 302 304 306 307 307 308 308 305 304 307 310 314 317 321 323 326 328 330 330 332 333 334 335 336 338 338 338 338 338 340 341 341 342 343 344 345 347 348 348 348 349 350 351 350 350 349 348 345 341 336 331 327 324 319 312 302 291 281 275 270 266 261 256
291 292 293 294 295 295 297 298 299 299 300 301 303 304 304 304 305 304 302 302 305 310 314 318 320 321 324 327 329 329 330 332 333 334 335 336 337 337 337 337 338 340 340 341 343 344 345 346 347 348 348 349 350 350 350 349 349 349 347 343 338 333 329 327 324 319 312 302 291 281 274 270 265 261
290 290 291 292 293 295 296 296 297 298 299 300 301 301 301 301 301 299 298 300 304 309 314 316 317 318 321 325 327 328 328 330 331 332 334 335 336 336 336 336 337 339 340 341 342 343 344 345 347 348 348 348 349 350 350 350 349 349 348 346 341 336 332 329 327 323 318 310 300 290 280 273 268 264
289 290 291 292 293 294 295 294 295 297 298 298 298 298 298 298 296 294 295 299 305 309 312 314 315 316 319 324 326 326 327 329 330 331 333 334 335 335 335 335 336 338 339 340 341 342 343 345 347 348 348 348 349 350 350 349 348 348 348 346 343 338 334 331 329 326 321 315 307 298 289 280 273 268
290 291 291 292 292 293 294 294 296 297 297 297 297 296 297 297 295 292 294 299 305 309 311 312 313 315 318 322 324 324 325 327 329 330 332 333 334 334 333 334 335 337 338 339 340 341 342 345 347 348 348 348 348 349 349 349 348 347 347 346 343 340 336 334 332 329 324 319 312 306 297 289 280 273
291 292 293 293 293 293 294 295 296 296 297 297 297 297 298 298 294 292 295 300 305 309 309 310 312 314 317 320 322 322 323 326 328 329 331 333 333 332 332 333 334 336 337 338 339 340 342 344 346 347 348 347 348 348 349 348 347 347 346 345 344 341 338 337 336 332 327 321 316 311 305 297 288 280
291 293 295 294 293 293 295 296 296 296 297 297 298 299 300 298 293 292 297 302 305 307 308 309 311 313 315 318 319 320 322 325 327 329 330 331 332 331 331 331 333 335 336 337 338 339 341 343 346 347 347 347 347 348 348 348 347 346 345 345 344 343 340 338 338 335 330 324 318 314 310 304 296 287
291 294 294 292 294 298 298 294 292 293 294 296 299 301 300 296 293 296 299 302 304 306 307 309 311 312 314 316 317 318 320 324 326 328 329 330 330 329 329 330 331 333 335 336 337 338 340 343 345 346 346 346 347 347 347 347 347 346 345 344 344 344 342 339 338 337 333 328 322 317 314 310 303 295
292 291 289 290 299 310 308 298 293 291 292 295 298 300 300 297 296 298 299 300 303 306 307 308 309 311 313 314 315 315 319 323 326 327 328 328 328 328 328 329 330 332 334 335 336 337 339 342 344 345 346 346 346 347 347 347 346 346 345 344 344 344 343 341 339 338 336 332 326 321 317 313 307 299
289 285 283 287 297 308 311 307 302 297 293 294 296 298 298 299 298 297 297 299 303 306 307 307 308 310 311 312 312 314 318 322 325 326 327 327 327 326 327 327 329 331 333 334 336 336 338 341 343 344 345 345 346 346 347 346 346 346 345 344 344 344 344 342 340 338 336 334 330 325 320 314 308 300
281 281 283 287 291 296 300 302 304 303 298 293 294 296 296 297 298 297 297 300 305 306 306 305 307 309 311 311 311 314 318 321 323 324 325 325 325 325 325 326 328 330 332 333 335 335 337 340 342 343 344 344 345 346 347 346 346 345 345 344 344 344 344 343 340 339 337 336 332 327 322 316 309 300
282 284 286 287 288 289 290 289 293 299 298 294 293 294 294 296 297 297 298 302 304 304 304 304 306 308 310 310 311 314 317 319 321 322 322 323 323 323 324 325 327 329 331 332 334 334 336 339 341 342 343 343 345 346 346 346 345 345 345 344 343 344 344 343 341 340 338 336 332 326 323 321 315 303
280 283 283 283 284 286 286 284 284 288 292 295 296 294 292 294 296 298 301 302 302 302 302 303 306 308 308 308 310 312 315 317 318 320 320 320 321 321 322 324 325 327 329 331 333 334 335 338 340 341 342 342 344 345 346 346 345 345 344 344 344 343 344 343 342 340 340 338 331 323 321 322 319 309
280 283 283 283 284 287 289 288 284 282 283 290 295 294 291 292 296 300 303 302 300 300 300 302 303 305 306 306 308 310 313 315 316 317 318 318 318 319 320 322 324 326 328 330 332 333 335 337 339 340 341 342 343 345 345 345 345 344 344 344 344 343 344 343 341 340 341 339 330 322 319 321 319 311
283 287 289 290 293 297 296 293 290 286 283 285 291 293 290 291 295 300 301 301 299 298 298 299 301 302 303 304 306 309 311 313 315 315 316 316 316 317 318 321 322 324 327 329 331 332 334 337 338 339 340 341 343 344 345 345 344 344 344 344 344 344 344 343 341 340 341 341 332 324 322 322 319 311
286 291 294 298 301 302 300 297 295 293 289 286 287 289 288 289 294 298 299 299 300 298 296 296 297 298 300 302 305 307 310 311 313 313 313 313 314 315 317 319 321 323 326 328 330 332 334 336 337 338 339 341 342 343 344 344 344 344 344 344 344 344 344 343 341 339 341 341 335 329 326 324 321 314
281 283 286 291 295 296 296 294 294 295 293 288 285 285 285 287 293 296 296 298 300 298 296 296 295 296 298 301 303 305 308 309 311 311 311 311 312 313 315 317 320 322 325 327 329 331 333 335 336 337 339 340 341 342 343 343 343 343 343 344 344 344 344 344 341 338 340 342 338 333 330 327 323 318
273 275 280 286 289 289 289 288 289 292 293 288 283 283 284 287 291 293 295 298 298 297 298 298 296 295 297 299 301 304 306 308 309 309 309 309 310 312 314 316 319 321 324 326 328 331 333 334 335 336 338 339 341 342 343 343 343 343 343 343 344 344 344 344 343 339 339 340 339 335 333 329 325 320
271 272 275 279 280 281 283 283 284 288 288 282 281 283 283 284 288 291 294 296 297 297 299 298 295 294 296 298 300 302 304 306 306 307 307 307 308 310 312 315 318 320 323 325 328 330 332 333 334 336 337 339 340 341 342 342 342 342 342 342 343 343 344 345 344 340 338 338 338 336 334 331 327 322
266 266 269 270 268 271 276 276 278 284 283 278 278 282 280 281 286 292 296 297 296 297 300 299 297 297 297 297 299 301 303 304 304 304 304 305 307 309 311 314 317 319 322 324 327 330 331 333 334 335 336 337 339 340 341 342 342 341 341 342 342 343 343 344 344 342 338 337 336 335 334 332 329 324
259 261 269 269 262 263 269 270 271 274 274 272 276 280 279 282 289 294 296 296 296 297 299 300 299 298 296 297 299 300 301 302 302 302 303 304 306 308 311 313 316 318 321 324 327 329 331 332 333 334 335 336 338 339 341 342 341 341 341 341 341 342 343 343 343 342 339 337 335 334 333 332 330 326
259 260 268 266 258 253 254 256 260 263 264 268 273 276 278 283 288 292 294 294 295 296 297 298 298 297 296 296 297 297 298 300 300 300 301 303 305 308 310 312 315 318 320 323 326 328 330 331 332 333 334 335 337 338 340 341 341 340 340 340 340 341 342 343 343 342 340 338 335 333 332 331 329 327
253 255 258 255 249 242 238 242 251 259 263 267 270 272 276 282 286 290 293 293 293 294 295 296 296 296 295 295 295 295 296 298 298 298 300 302 304 307 309 312 314 317 320 323 326 328 329 330 331 332 333 335 336 337 339 340 340 340 340 340 339 340 341 342 342 342 340 338 335 332 330 329 327 325
245 247 250 248 246 244 242 246 254 259 261 264 268 270 275 281 285 287 289 289 289 291 293 294 294 294 293 292 292 293 295 296 296 297 299 301 304 306 308 311 314 316 320 323 325 327 328 329 330 331 332 334 335 336 338 339 340 339 339 339 339 340 340 341 341 341 340 338 336 333 330 327 324 322
233 234 241 244 246 246 247 251 255 257 257 261 265 269 273 277 280 282 283 285 286 289 290 292 292 291 291 290 290 292 293 294 295 296 298 300 303 305 308 311 314 316 319 322 324 326 327 328 329 330 331 333 334 335 337 338 339 339 339 339 339 339 340 340 340 340 339 338 337 334 330 327 323 320
Height
10978 10977 10975 10973 10971 10969 10967 10965 10963 10961 10959 10956 10954 10951 10949 10947 10946 10944 10943 10941 10940 10937 10935 10932 10929 10926 10924 10921 10919 10916 10913 10910 10906 10903 10900 10896 10892 10889 10886 10883 10881 10878 10875 10871 10867 10864 10860 10856 10852 10848 10844 10841 10837 10833 10829 10826 10823 10819 10816 10814 10812 10810 10808 10806 10804 10803 10803 10804 10806 10809 10812 10814 10816 10817
10976 10975 10973 10971 10969 10968 10966 10964 10961 10958 10956 10954 10952 10949 10947 10946 10944 10942 10940 10939 10937 10935 10933 10930 10927 10925 10922 10919 10917 10914 10912 10908 10905 10901 10897 10894 10890 10887 10884 10880 10877 10873 10869 10865 10862 10858 10854 10849 10845 10841 10836 10832 10828 10824 10819 10815 10811 10808 10804 10802 10799 10798 10797 10795 10794 10793 10792 10792 10794 10797 10800 10803 10805 10807
10975 10973 10971 10969 10967 10966 10964 10961 10959 10956 10953 10950 10948 10947 10945 10943 10941 10939 10937 10935 10933 10932 10930 10927 10925 10922 10920 10917 10915 10912 10910 10906 10903 10899 10896 10892 10888 10885 10882 10878 10874 10869 10865 10861 10856 10852 10847 10843 10838 10833 10828 10823 10819 10814 10809 10804 10800 10796 10792 10789 10787 10785 10784 10784 10783 10782 10781 10781 10782 10784 10787 10791 10793 10796
10973 10972 10970 10968 10966 10964 10962 10959 10957 10954 10951 10947 10945 10944 10942 10940 10938 10936 10934 10932 10930 10928 10926 10924 10921 10919 10917 10914 10912 10909 10906 10903 10900 10896 10893 10889 10885 10882 10878 10874 10869 10865 10860 10855 10851 10846 10841 10836 10831 10826 10821 10815 10809 10803 10798 10793 10788 10784 10781 10777 10775 10772 10771 10771 10771 10770 10770 10770 10771 10772 10775 10778 10781 10784
10971 10970 10968 10966 10964 10963 10960 10958 10955 10952 10949 10946 10943 10940 10938 10936 10935 10933 10932 10929 10927 10925 10922 10920 10917 10915 10913 10910 10907 10905 10902 10899 10895 10891 10888 10885 10881 10877 10873 10869 10864 10860 10855 10849 10845 10840 10835 10830 10824 10819 10813 10806 10799 10792 10786 10781 10776 10772 10768 10765 10762 10760 10759 10758 10758 10758 10758 10759 10759 10761 10763 10765 10769 10772
10969 10968 10966 10964 10962 10961 10958 10956 10953 10951 10948 10945 10941 10938 10935 10932 10930 10930 10929 10927 10924 10922 10919 10916 10914 10911 10908 10905 10903 10900 10896 10893 10889 10886 10882 10879 10876 10872 10868 10864 10859 10855 10849 10844 10839 10834 10829 10824 10818 10812 10805 10797 10790 10782 10775 10769 10763 10759 10755 10752 10750 10748 10747 10746 10746 10746 10746 10746 10747 10748 10750 10753 10756 10760
10966 10965 10963 10962 10960 10958 10956 10953 10951 10949 10946 10944 10940 10937 10933 10930 10927 10926 10925 10923 10921 10919 10916 10913 10911 10908 10904 10901 10898 10895 10892 10888 10884 10881 10878 10874 10871 10868 10863 10859 10854 10849 10843 10837 10833 10828 10823 10817 10812 10805 10798 10789 10781 10773 10765 10758 10751 10746 10742 10739 10737 10735 10734 10733 10733 10733 10733 10733 10734 10736 10737 10740 10743 10746
10964 10962 10960 10958 10957 10955 10952 10950 10948 10946 10943 10941 10938 10935 10932 10929 10926 10924 10923 10921 10919 10916 10914 10911 10908 10905 10902 10898 10895 10892 10889 10885 10881 10877 10874 10870 10867 10863 10859 10853 10848 10842 10836 10831 10827 10822 10817 10812 10806 10798 10790 10782 10773 10764 10756 10748 10741 10735 10730 10726 10724 10722 10721 10720 10719 10719 10720 10721 10722 10723 10725 10727 10729 10732
10960 10959 10957 10955 10954 10952 10949 10946 10945 10943 10940 10938 10935 10932 10930 10927 10924 10922 10920 10918 10916 10914 10911 10908 10906 10903 10900 10896 10892 10889 10885 10881 10878 10874 10870 10866 10862 10859 10854 10849 10843 10836 10831 10826 10822 10817 10812 10806 10799 10792 10783 10774 10765 10755 10746 10738 10731 10724 10718 10714 10711 10709 10708 10707 10706 10706 10707 10708 10710 10711 10714 10716 10718 10721
10956 10955 10953 10952 10950 10948 10946 10943 10941 10939 10937 10935 10932 10930 10927 10924 10921 10919 10917 10915 10912 10910 10907 10904 10902 10900 10897 10893 10889 10886 10882 10878 10874 10870 10866 10862 10858 10854 10850 10846 10839 10832 10825 10821 10818 10813 10808 10801 10792 10784 10776 10766 10756 10746 10736 10727 10719 10713 10707 10702 10699 10696 10695 10695 10694 10694 10694 10696 10697 10699 10702 10705 10707 10710
10952 10951 10949 10948 10946 10944 10943 10940 10938 10935 10933 10931 10929 10927 10924 10921 10919 10916 10914 10912 10909 10906 10903 10900 10898 10896 10893 10890 10886 10882 10878 10874 10870 10866 10862 10858 10854 10850 10846 10841 10835 10828 10822 10817 10814 10809 10804 10798 10789 10779 10770 10760 10749 10739 10729 10719 10710 10702 10695 10691 10687 10684 10683 10683 10682 10682 10683 10684 10685 10687 10690 10693 10695 10698
10948 10946 10944 10943 10941 10940 10938 10936 10934 10931 10929 10927 10925 10923 10920 10918 10915 10913 10911 10908 10905 10902 10899 10896 10894 10892 10889 10885 10882 10879 10875 10871 10866 10862 10858 10854 10850 10845 10841 10836 10829 10822 10817 10813 10809 10804 10798 10791 10783 10773 10764 10754 10742 10731 10721 10711 10702 10693 10685 10681 10677 10674 10672 10671 10670 10671 10671 10672 10674 10675 10677 10680 10683 10685
10943 10941 10939 10938 10937 10935 10934 10932 10930 10927 10925 10922 10921 10919 10917 10914 10911 10909 10906 10904 10901 10898 10895 10892 10889 10887 10885 10881 10878 10874 10871 10867 10863 10858 10854 10849 10845 10840 10836 10830 10823 10816 10812 10807 10802 10797 10790 10782 10773 10764 10754 10744 10734 10722 10712 10702 10694 10685 10677 10671 10667 10664 10662 10660 10659 10659 10660 10661 10662 10663 10665 10667 10670 10673
10938 10936 10934 10933 10932 10930 10928 10927 10925 10923 10920 10918 10916 10914 10912 10909 10906 10904 10901 10899 10896 10893 10890 10888 10885 10883 10880 10877 10873 10870 10866 10862 10858 10854 10849 10844 10839 10834 10828 10824 10817 10810 10805 10800 10794 10788 10781 10772 10763 10754 10744 10735 10725 10714 10704 10694 10685 10678 10670 10663 10658 10654 10652 10650 10649 10648 10648 10649 10650 10651 10653 10655 10657 10660
10933 10931 10929 10928 10927 10926 10924 10922 10920 10918 10915 10913 10911 10909 10907 10904 10902 10899 10897 10894 10892 10889 10885 10883 10881 10878 10875 10872 10869 10865 10861 10857 10853 10849 10844 10839 10833 10828 10822 10817 10812 10804 10798 10793 10786 10779 10772 10763 10754 10746 10736 10727 10717 10707 10697 10687 10678 10670 10663 10657 10651 10646 10643 10640 10639 10638 10638 10638 10638 10640 10641 10643 10645 10648
10928 10926 10924 10923 10921 10921 10919 10917 10914 10912 10910 10907 10906 10905 10901 10899 10897 10894 10891 10889 10886 10884 10881 10878 10876 10874 10871 10867 10863 10859 10856 10852 10848 10843 10839 10833 10827 10821 10816 10810 10805 10799 10793 10787 10780 10772 10764 10755 10746 10738 10729 10719 10710 10699 10689 10681 10672 10664 10657 10651 10645 10640 10636 10633 10631 10629 10629 10628 10628 10629 10630 10632 10634 10636
10923 10921 10919 10917 10916 10915 10914 10912 10909 10906 10904 10901 10900 10899 10897 10894 10891 10889 10886 10883 10880 10878 10875 10873 10871 10868 10865 10862 10859 10854 10850 10846 10842 10837 10833 10827 10821 10816 10810 10804 10799 10793 10787 10782 10776 10767 10759 10750 10740 10731 10723 10714 10705 10695 10684 10675 10666 10658 10650 10645 10640 10635 10631 10627 10624 10621 10620 10620 10620 10620 10620 10621 10623 10625
10917 10915 10914 10912 10910 10909 10908 10907 10904 10901 10897 10895 10894 10893 10891 10888 10885 10883 10880 10876 10874 10872 10870 10868 10865 10863 10860 10858 10854 10849 10845 10840 10836 10832 10827 10822 10816 10810 10804 10799 10793 10787 10781 10775 10770 10762 10754 10744 10734 10724 10717 10709 10700 10691 10680 10669 10659 10651 10643 10638 10633 10630 10625 10622 10618 10615 10613 10611 10611 10611 10611 10612 10613 10615
10910 10909 10908 10906 10905 10903 10901 10900 10899 10896 10891 10889 10888 10887 10885 10882 10879 10876 10874 10871 10868 10866 10864 10863 10861 10858 10856 10852 10848 10844 10840 10835 10830 10826 10821 10816 10810 10804 10799 10793 10788 10782 10775 10769 10763 10756 10748 10739 10729 10719 10712 10704 10695 10687 10677 10665 10653 10644 10637 10631 10626 10622 10619 10615 10612 10609 10606 10604 10603 10602 10602 10603 10604 10605
10903 10902 10901 10900 10898 10896 10894 10893 10893 10890 10886 10883 10882 10881 10878 10876 10873 10870 10867 10865 10863 10861 10859 10857 10856 10854 10851 10847 10843 10838 10834 10829 10825 10820 10815 10810 10805 10799 10793 10787 10782 10777 10770 10765 10758 10750 10742 10734 10724 10714 10706 10698 10690 10681 10672 10662 10650 10639 10631 10625 10620 10615 10611 10608 10606 10603 10601 10598 10596 10594 10593 10593 10594 10595
10896 10894 10894 10893 10891 10889 10887 10885 10885 10883 10880 10877 10876 10875 10872 10869 10867 10865 10862 10860 10858 10856 10854 10852 10850 10848 10845 10841 10837 10832 10828 10824 10820 10815 10811 10805 10800 10794 10788 10782 10777 10771 10765 10759 10754 10746 10737 10730 10721 10710 10699 10691 10684 10675 10666 10657 10648 10638 10629 10621 10615 10609 10604 10600 10598 10596 10594 10591 10589 10587 10585 10585 10585 10585
10889 10888 10886 10885 10884 10882 10880 10878 10877 10876 10873 10870 10869 10868 10866 10863 10861 10859 10857 10854 10853 10851 10849 10847 10845 10842 10839 10835 10831 10827 10822 10818 10814 10810 10806 10801 10795 10790 10784 10778 10773 10767 10760 10753 10747 10741 10733 10726 10717 10707 10695 10683 10675 10667 10659 10649 10641 10634 10626 10617 10610 10603 10598 10594 10591 10588 10586 10583 10581 10580 10578 10577 10576 10576
10881 10881 10879 10877 10876 10875 10873 10871 10870 10868 10866 10864 10862 10860 10859 10857 10855 10853 10851 10849 10847 10845 10843 10841 10838 10836 10833 10829 10825 10821 10817 10813 10809 10805 10800 10795 10790 10785 10780 10774 10768 10762 10755 10747 10741 10735 10729 10721 10711 10702 10691 10680 10668 10659 10650 10641 10632 10625 10619 10613 10606 10599 10592 10587 10584 10581 10578 10575 10573 10572 10570 10569 10568 10568
10873 10873 10871 10869 10868 10868 10867 10864 10862 10861 10860 10858 10855 10853 10851 10851 10849 10847 10846 10843 10842 10840 10837 10835 10832 10829 10826 10823 10819 10815 10812 10808 10804 10800 10795 10790 10785 10780 10774 10769 10763 10757 10750 10743 10736 10730 10723 10715 10706 10695 10685 10675 10665 10653 10644 10635 10626 10619 10613 10607 10602 10595 10588 10582 10578 10574 10570 10568 10566 10564 10563 10562 10561 10560
10865 10864 10863 10862 10861 10860 10859 10857 10856 10855 10853 10851 10850 10847 10845 10844 10843 10841 10840 10838 10836 10834 10831 10829 10826 10823 10820 10818 10814 10810 10807 10803 10799 10795 10790 10785 10780 10775 10769 10763 10757 10752 10745 10738 10732 10725 10718 10710 10701 10691 10680 10670 10661 10651 10641 10631 10623 10615 10609 10603 10597 10591 10584 10578 10573 10568 10563 10560 10558 10557 10556 10556 10555 10554
10858 10856 10855 10854 10853 10853 10853 10851 10850 10848 10846 10845 10844 10842 10840 10839 10837 10835 10834 10832 10830 10828 10826 10823 10820 10817 10814 10812 10809 10805 10802 10798 10794 10790 10785 10780 10775 10770 10764 10759 10753 10747 10740 10733 10726 10720 10713 10706 10697 10688 10678 10668 10658 10649 10639 10629 10619 10611 10604 10599 10593 10585 10579 10573 10568 10563 10558 10554 10551 10550 10550 10550 10549 10548
10852 10850 10848 10846 10845 10846 10846 10845 10844 10842 10841 10839 10839 10837 10836 10834 10832 10830 10829 10827 10825 10823 10820 10817 10815 10812 10809 10806 10803 10800 10797 10793 10789 10785 10780 10774 10770 10765 10760 10754 10748 10741 10735 10729 10722 10715 10708 10701 10693 10685 10677 10668 10657 10646 10636 10627 10617 10607 10598 10592 10587 10580 10573 10567 10563 10559 10554 10549 10546 10544 10544 10544 10543 10542
10847 10844 10841 10838 10838 10840 10840 10839 10838 10836 10835 10834 10833 10832 10830 10829 10827 10826 10823 10821 10819 10817 10814 10811 10809 10806 10804 10801 10798 10795 10791 10788 10784 10779 10774 10769 10765 10761 10756 10750 10744 10737 10731 10724 10718 10711 10704 10697 10690 10683 10675 10666 10656 10645 10634 10623 10614 10605 10594 10586 10581 10575 10568 10562 10557 10554 10550 10546 10542 10539 10538 10537 10537 10536
10840 10838 10834 10831 10832 10834 10833 10832 10832 10830 10829 10828 10827 10826 10825 10823 10822 10820 10818 10816 10814 10811 10808 10806 10803 10801 10798 10795 10792 10789 10786 10782 10778 10774 10769 10764 10760 10756 10751 10746 10740 10733 10727 10720 10714 10707 10700 10693 10686 10679 10673 10665 10654 10643 10632 10621 10610 10601 10592 10582 10575 10569 10562 10556 10551 10547 10544 10542 10539 10536 10534 10532 10530 10529
10833 10830 10827 10824 10826 10828 10828 10827 10826 10825 10823 10823 10822 10820 10819 10818 10816 10814 10812 10810 10808 10806 10803 10800 10798 10796 10793 10790 10786 10783 10779 10776 10772 10768 10764 10760 10756 10752 10747 10742 10736 10729 10722 10716 10710 10703 10697 10690 10682 10675 10669 10662 10652 10641 10630 10618 10606 10596 10587 10578 10571 10564 10557 10550 10545 10541 10538 10536 10534 10532 10530 10527 10524 10521
10825 10823 10821 10818 10819 10822 10824 10823 10821 10820 10818 10817 10817 10815 10814 10812 10810 10808 10807 10805 10803 10800 10797 10795 10792 10790 10787 10783 10780 10777 10773 10769 10766 10763 10759 10755 10751 10747 10742 10737 10732 10725 10718 10712 10706 10699 10693 10686 10679 10671 10664 10657 10650 10639 10627 10615 10604 10593 10583 10574 10566 10560 10553 10546 10540 10535 10531 10529 10526 10525 10524 10523 10519 10516
10815 10815 10813 10810 10810 10813 10816 10816 10816 10815 10813 10812 10810 10809 10808 10806 10804 10802 10801 10799 10797 10794 10792 10789 10786 10784 10781 10777 10774 10771 10767 10764 10761 10758 10755 10751 10747 10742 10737 10732 10727 10721 10715 10709 10702 10696 10689 10682 10675 10667 10660 10653 10645 10636 10625 10613 10602 10591 10581 10571 10561 10555 10549 10543 10537 10532 10527 10523 10519 10517 10516 10516 10514 10511
10804 10805 10804 10803 10803 10804 10806 10808 10808 10808 10807 10805 10804 10802 10801 10800 10798 10796 10794 10793 10791 10789 10786 10783 10781 10778 10775 10772 10768 10765 10762 10759 10756 10753 10750 10746 10742 10737 10733 10728 10723 10717 10712 10705 10699 10692 10685 10678 10671 10663 10656 10648 10640 10632 10622 10613 10602 10590 10580 10570 10559 10551 10545 10539 10534 10529 10526 10522 10516 10511 10509 10510 10509 10505
10795 10796 10795 10796 10797 10799 10800 10799 10800 10800 10800 10799 10797 10796 10795 10794 10792 10790 10789 10787 10785 10783 10780 10778 10775 10772 10769 10766 10763 10760 10757 10754 10751 10748 10745 10741 10736 10732 10728 10724 10718 10713 10707 10701 10694 10687 10681 10674 10667 10660 10651 10643 10634 10625 10617 10609 10600 10590 10579 10569 10559 10549 10541 10535 10530 10526 10524 10521 10515 10508 10505 10505 10504 10500
10791 10792 10790 10790 10792 10794 10794 10792 10792 10792 10792 10792 10791 10790 10788 10787 10786 10785 10783 10782 10779 10777 10774 10772 10769 10766 10764 10761 10758 10755 10753 10750 10747 10743 10740 10735 10731 10727 10724 10720 10714 10708 10702 10696 10689 10682 10675 10668 10662 10655 10647 10639 10630 10622 10612 10603 10595 10587 10578 10568 10558 10547 10538 10532 10526 10522 10520 10518 10513 10506 10502 10501 10500 10496
10788 10787 10784 10784 10785 10786 10786 10785 10784 10784 10785 10785 10784 10783 10782 10781 10780 10779 10777 10775 10773 10771 10769 10766 10764 10761 10759 10756 10753 10750 10748 10745 10742 10738 10734 10730 10726 10722 10718 10715 10710 10704 10698 10692 10685 10678 10670 10663 10656 10650 10642 10634 10626 10617 10609 10600 10591 10582 10573 10565 10556 10547 10537 10528 10522 10518 10516 10514 10510 10503 10499 10496 10495 10492
10784 10782 10778 10776 10777 10778 10778 10778 10777 10777 10778 10779 10777 10776 10775 10774 10774 10773 10770 10768 10767 10765 10763 10761 10759 10756 10754 10751 10748 10745 10743 10740 10737 10734 10729 10725 10721 10717 10713 10709 10705 10699 10694 10688 10682 10674 10667 10659 10652 10645 10638 10630 10621 10612 10603 10595 10587 10579 10570 10561 10553 10545 10537 10528 10520 10514 10511 10510 10506 10501 10496 10492 10490 10488
10776 10779 10778 10774 10772 10771 10772 10772 10772 10772 10772 10772 10771 10769 10769 10768 10767 10766 10764 10762 10761 10759 10757 10755 10753 10751 10749 10747 10743 10741 10738 10735 10732 10729 10724 10719 10715 10711 10708 10704 10699 10694 10689 10684 10678 10670 10663 10656 10648 10641 10634 10626 10618 10610 10600 10590 10581 10574 10567 10558 10551 10544 10536 10528 10519 10511 10507 10505 10503 10499 10495 10491 10487 10484
10759 10763 10766 10767 10766 10764 10763 10764 10766 10767 10767 10766 10764 10763 10762 10761 10760 10759 10758 10757 10754 10752 10751 10750 10748 10746 10744 10742 10739 10736 10733 10730 10727 10723 10719 10714 10710 10706 10702 10698 10694 10689 10684 10679 10673 10666 10659 10652 10645 10637 10630 10623 10616 10608 10599 10588 10577 10569 10562 10554 10547 10540 10533 10526 10519 10511 10505 10502 10500 10497 10493 10489 10485 10482
10748 10748 10752 10758 10762 10763 10760 10756 10757 10759 10760 10759 10758 10756 10755 10755 10754 10753 10753 10751 10748 10746 10745 10744 10742 10741 10739 10736 10734 10731 10728 10725 10722 10718 10714 10710 10705 10701 10697 10692 10688 10684 10679 10675 10669 10663 10655 10648 10641 10634 10627 10620 10613 10606 10598 10588 10577 10567 10559 10552 10545 10538 10531 10525 10519 10513 10506 10500 10497 10494 10491 10488 10484 10481
10744 10746 10751 10755 10758 10761 10760 10755 10752 10753 10753 10752 10750 10749 10748 10748 10747 10747 10746 10744 10741 10740 10739 10738 10737 10735 10733 10731 10728 10726 10723 10719 10716 10712 10708 10704 10700 10695 10691 10687 10682 10678 10674 10670 10664 10658 10651 10644 10637 10630 10623 10617 10610 10603 10595 10587 10577 10567 10558 10550 10543 10536 10529 10522 10517 10512 10506 10501 10496 10492 10489 10486 10483 10479
10739 10744 10750 10753 10755 10758 10759 10754 10749 10748 10746 10745 10744 10744 10743 10742 10741 10740 10738 10737 10736 10735 10734 10733 10732 10730 10728 10725 10723 10720 10717 10714 10710 10706 10703 10699 10694 10690 10685 10681 10677 10672 10668 10664 10658 10652 10646 10639 10633 10626 10620 10613 10606 10599 10592 10584 10575 10566 10556 10547 10539 10533 10527 10520 10514 10509 10504 10500 10495 10491 10487 10484 10481 10478
10735 10738 10743 10747 10750 10753 10753 10749 10745 10743 10741 10738 10738 10738 10738 10736 10734 10733 10732 10731 10730 10729 10729 10728 10726 10724 10722 10719 10716 10713 10711 10707 10704 10700 10697 10693 10689 10684 10678 10674 10670 10667 10662 10657 10652 10647 10641 10634 10628 10622 10615 10609 10602 10595 10589 10582 10573 10564 10555 10546 10537 10530 10523 10518 10512 10507 10503 10499 10495 10491 10487 10483 10479 10476
10729 10732 10736 10741 10744 10746 10746 10743 10740 10737 10735 10732 10731 10732 10732 10730 10728 10727 10726 10724 10723 10723 10723 10722 10719 10718 10716 10713 10709 10706 10704 10701 10697 10694 10690 10687 10683 10678 10673 10668 10664 10660 10656 10651 10646 10640 10635 10629 10623 10617 10611 10605 10598 10591 10585 10579 10571 10562 10552 10543 10535 10528 10520 10514 10509 10505 10501 10498 10494 10490 10486 10482 10479 10476
10724 10728 10732 10736 10738 10739 10737 10734 10731 10729 10727 10726 10725 10726 10725 10724 10723 10722 10720 10718 10717 10718 10717 10715 10713 10711 10709 10705 10701 10699 10697 10694 10691 10688 10684 10680 10676 10671 10667 10662 10657 10653 10649 10645 10640 10635 10629 10624 10618 10612 10606 10600 10594 10587 10581 10575 10569 10560 10551 10541 10533 10526 10519 10512 10506 10501 10498 10495 10492 10489 10485 10481 10477 10474